Weather History for Hickory, NC

Change the Weather History Date:

Sunday, May 26, 2013

  Actual Average Record
Temperature  
Mean Temperature 64 °F -  
Max Temperature 73 °F 77 °F 94 °F (1953)
Min Temperature 54 °F 58 °F 44 °F (1988)
Degree Days  
Heating Degree Days 2    
Growing Degree Days 14 (Base 50)    
Moisture  
Dew Point 46 °F    
Average Humidity 56    
Maximum Humidity 80    
Minimum Humidity 41    
Precipitation  
Precipitation 0.02 in - - ()
Sea Level Pressure  
Sea Level Pressure 30.18 in    
Wind  
Wind Speed 2 mph (SSE)    
Max Wind Speed 9 mph    
Max Gust Speed -    
Visibility 10 miles    
Events Rain    
Averages and records for this station are not official NWS values.
T = Trace of Precipitation, MM = Missing Value Source: NWS Daily Summary

Daily Weather History Graph

Daily Weather History Graph

Search for Another Location

Airport:

Trip Planner

Search our weather history database for the weather conditions in past years. The results will help you decide how hot, cold, wet, or windy it might be!

Date:

Astronomy

May. 26, 2013 Rise Set
Actual Time 6:13 AM EDT 8:32 PM EDT
Civil Twilight 5:43 AM EDT 9:01 PM EDT
Nautical Twilight 5:08 AM EDT 9:37 PM EDT
Astronomical Twilight 4:28 AM EDT 10:16 PM EDT
Moon 10:19 PM EDT 7:40 AM EDT
Length of Visible Light 15h 17m
Length of Day
14h 19m
Waning Gibbous, 97% of the Moon is Illuminated
May 26
Waning Gibbous
May 31
Last Quarter
Jun 8
New
Jun 16
First Quarter
Jun 23
Full

Hourly Weather History & Observations

Time (EDT) Temp. Dew Point Humidity Pressure Visibility Wind Dir Wind Speed Gust Speed Precip Events Conditions
12:53 AM 61.0 °F 45.0 °F 56% 30.16 in 10.0 mi Calm Calm - N/A   Overcast
1:53 AM 61.0 °F 45.0 °F 56% 30.16 in 10.0 mi Calm Calm - N/A   Overcast
2:53 AM 61.0 °F 41.0 °F 48% 30.15 in 10.0 mi East 3.5 mph - N/A   Overcast
3:53 AM 59.0 °F 37.0 °F 44% 30.16 in 10.0 mi Calm Calm - N/A   Overcast
4:53 AM 57.9 °F 37.9 °F 47% 30.17 in 10.0 mi Calm Calm - 0.00 in Rain Light Rain
5:53 AM 55.0 °F 43.0 °F 64% 30.19 in 10.0 mi NE 4.6 mph - 0.00 in Rain Light Rain
6:53 AM 54.0 °F 44.1 °F 69% 30.20 in 10.0 mi East 4.6 mph - 0.02 in Rain Light Rain
7:53 AM 55.0 °F 48.9 °F 80% 30.24 in 10.0 mi Calm Calm - 0.00 in   Overcast
8:53 AM 55.9 °F 46.0 °F 69% 30.25 in 10.0 mi Calm Calm - N/A   Overcast
9:53 AM 57.0 °F 44.1 °F 62% 30.26 in 10.0 mi Calm Calm - N/A   Overcast
10:53 AM 59.0 °F 48.0 °F 67% 30.25 in 10.0 mi SW 3.5 mph - N/A   Overcast
11:53 AM 64.9 °F 41.0 °F 42% 30.24 in 10.0 mi Calm Calm - N/A   Mostly Cloudy
12:53 PM 66.9 °F 46.9 °F 49% 30.23 in 10.0 mi Calm Calm - N/A   Clear
1:53 PM 69.1 °F 45.0 °F 42% 30.19 in 10.0 mi Variable 3.5 mph - N/A   Clear
2:53 PM 72.0 °F 48.0 °F 43% 30.17 in 10.0 mi WSW 9.2 mph - N/A   Clear
3:53 PM 73.0 °F 48.9 °F 42% 30.15 in 10.0 mi Variable 6.9 mph - N/A   Clear
4:53 PM 73.0 °F 48.0 °F 41% 30.14 in 10.0 mi Calm Calm - N/A   Clear
5:53 PM 72.0 °F 48.9 °F 44% 30.14 in 10.0 mi Variable 3.5 mph - N/A   Clear
6:53 PM 72.0 °F 50.0 °F 46% 30.14 in 10.0 mi South 9.2 mph - N/A   Clear
7:53 PM 70.0 °F 51.1 °F 51% 30.14 in 10.0 mi South 3.5 mph - N/A   Clear
8:53 PM 66.0 °F 51.1 °F 59% 30.16 in 10.0 mi Calm Calm - N/A   Clear
9:53 PM 64.0 °F 52.0 °F 65% 30.17 in 10.0 mi Calm Calm - N/A   Clear
10:53 PM 61.0 °F 52.0 °F 72% 30.18 in 10.0 mi Calm Calm - N/A   Clear
11:53 PM 59.0 °F 52.0 °F 78% 30.18 in 10.0 mi Calm Calm - N/A   Clear